This is the latest recevied weather packets stored in our database for station/object IU1JVO-13. If no packets are shown the sender has not sent any weather packets the latest 10 day(s).
| Time | Temp. | Humidity | Pressure | Rain* | Wind** | Luminosity | Snow |
|---|---|---|---|---|---|---|---|
| 1788406552 | 19.44° C | 39% | 1023 hPa | 0 mm | - | - | - |
| 1788405953 | 20° C | 39% | 1023.2 hPa | 0 mm | - | - | - |
| 1788405352 | 20.56° C | 38% | 1023.1 hPa | 0 mm | - | - | - |
| 1788404753 | 21.11° C | 35% | 1023.2 hPa | 0 mm | - | - | - |
| 1788404150 | 22.22° C | 31% | 1023.1 hPa | 0 mm | - | - | - |
| 1788403551 | 22.22° C | 31% | 1023.2 hPa | 0 mm | - | - | - |
| 1788402951 | 22.78° C | 32% | 1023.1 hPa | 0 mm | - | - | - |
| 1788402349 | 22.78° C | 32% | 1023.1 hPa | 0 mm | - | - | - |
| 1788401750 | 22.78° C | 32% | 1023.1 hPa | 0 mm | - | - | - |
| 1788401148 | 22.78° C | 33% | 1023 hPa | 0 mm | - | - | - |
| 1788399949 | 22.78° C | 34% | 1023.1 hPa | 0 mm | - | - | - |
| 1788381343 | 23.33° C | 60% | 1022.8 hPa | 0 mm | - | - | - |
| 1788380142 | 23.33° C | 62% | 1023 hPa | 0 mm | - | - | - |
| 1788378341 | 23.89° C | 60% | 1022.9 hPa | 0 mm | - | - | - |
| 1788377741 | 23.89° C | 60% | 1022.8 hPa | 0 mm | - | - | - |
| 1788377141 | 23.89° C | 61% | 1022.6 hPa | 0 mm | - | - | - |
| 1788375939 | 23.89° C | 63% | 1022.4 hPa | 0 mm | - | - | - |
| 1788375341 | 23.89° C | 63% | 1022.4 hPa | 0 mm | - | - | - |
| 1788374737 | 23.89° C | 62% | 1022.1 hPa | 0 mm | - | - | - |
| 1788374137 | 24.44° C | 62% | 1021.9 hPa | 0 mm | - | - | - |
| 1788373537 | 24.44° C | 61% | 1021.8 hPa | 0 mm | - | - | - |
| 1788372938 | 25° C | 61% | 1021.7 hPa | 0 mm | - | - | - |
| 1788372337 | 25.56° C | 60% | 1021.7 hPa | 0 mm | - | - | - |
| 1788371736 | 25.56° C | 58% | 1021.8 hPa | 0 mm | - | - | - |
| 1788371135 | 26.11° C | 56% | 1021.7 hPa | 0 mm | - | - | - |
* Rain latest hour (hover to see other rain measurements)
** Current wind speed in m/s (hover to see current wind gust speed)